Time,TemperatureF,DewpointF,PressureIn,WindDirection,WindDirectionDegrees,WindSpeedMPH,WindSpeedGustMPH,Humidity,HourlyPrecipIn,Conditions,Clouds,dailyrainin,SoftwareType,DateUTC
2013-06-11 00:09:00,67.7,64.0,29.76,West,274,5.0,-999.0,89,-99.99,,,0.48,weatherlink.com 1.10,2013-06-11 04:09:00,
2013-06-11 00:24:00,67.7,64.0,29.77,WSW,257,7.0,-999.0,88,-99.99,,,0.48,weatherlink.com 1.10,2013-06-11 04:24:00,
2013-06-11 00:39:00,67.8,64.0,29.77,WSW,257,7.0,-999.0,87,-99.99,,,0.48,weatherlink.com 1.10,2013-06-11 04:39:00,
2013-06-11 00:54:00,68.0,64.0,29.77,WSW,258,6.0,-999.0,87,-99.99,,,0.48,weatherlink.com 1.10,2013-06-11 04:54:00,
2013-06-11 01:09:00,68.1,65.0,29.77,West,261,7.0,-999.0,88,-99.99,,,0.48,weatherlink.com 1.10,2013-06-11 05:09:00,
2013-06-11 01:24:00,67.8,64.0,29.77,West,262,5.0,-999.0,88,-99.99,,,0.48,weatherlink.com 1.10,2013-06-11 05:24:00,
2013-06-11 01:39:00,67.7,64.0,29.77,West,262,5.0,-999.0,89,-99.99,,,0.48,weatherlink.com 1.10,2013-06-11 05:39:00,
2013-06-11 01:55:00,67.5,65.0,29.77,West,263,10.0,-999.0,90,-99.99,,,0.48,weatherlink.com 1.10,2013-06-11 05:55:00,
2013-06-11 02:10:00,67.4,65.0,29.78,West,269,10.0,-999.0,90,-99.99,,,0.48,weatherlink.com 1.10,2013-06-11 06:10:00,
2013-06-11 02:25:00,66.8,64.0,29.78,West,270,6.0,-999.0,91,-99.99,,,0.48,weatherlink.com 1.10,2013-06-11 06:25:00,
2013-06-11 02:40:00,66.3,64.0,29.78,West,265,5.0,-999.0,92,-99.99,,,0.48,weatherlink.com 1.10,2013-06-11 06:40:00,
2013-06-11 02:55:00,65.8,64.0,29.78,West,267,5.0,-999.0,92,-99.99,,,0.48,weatherlink.com 1.10,2013-06-11 06:55:00,
2013-06-11 03:10:00,65.4,63.0,29.78,West,269,6.0,-999.0,92,-99.99,,,0.48,weatherlink.com 1.10,2013-06-11 07:10:00,
2013-06-11 03:25:00,65.0,63.0,29.78,West,270,8.0,-999.0,93,-99.99,,,0.48,weatherlink.com 1.10,2013-06-11 07:25:00,
2013-06-11 03:40:00,64.7,63.0,29.79,West,275,9.0,-999.0,93,-99.99,,,0.48,weatherlink.com 1.10,2013-06-11 07:40:00,
2013-06-11 03:55:00,64.4,62.0,29.80,West,275,9.0,-999.0,93,-99.99,,,0.48,weatherlink.com 1.10,2013-06-11 07:55:00,
2013-06-11 04:10:00,64.4,63.0,29.80,West,278,13.0,-999.0,94,-99.99,,,0.48,weatherlink.com 1.10,2013-06-11 08:10:00,
2013-06-11 04:25:00,64.3,63.0,29.80,West,273,15.0,-999.0,94,-99.99,,,0.48,weatherlink.com 1.10,2013-06-11 08:25:00,
2013-06-11 04:41:00,64.3,63.0,29.80,West,281,11.0,-999.0,94,-99.99,,,0.48,weatherlink.com 1.10,2013-06-11 08:41:00,
2013-06-11 04:56:00,64.2,63.0,29.81,West,279,13.0,-999.0,94,-99.99,,,0.48,weatherlink.com 1.10,2013-06-11 08:56:00,
2013-06-11 05:11:00,64.1,63.0,29.82,WNW,284,9.0,-999.0,95,-99.99,,,0.48,weatherlink.com 1.10,2013-06-11 09:11:00,
2013-06-11 05:26:00,64.4,63.0,29.82,WNW,284,7.0,-999.0,95,-99.99,,,0.48,weatherlink.com 1.10,2013-06-11 09:26:00,
2013-06-11 05:41:00,64.7,63.0,29.83,West,281,9.0,-999.0,94,-99.99,,,0.48,weatherlink.com 1.10,2013-06-11 09:41:00,
2013-06-11 05:56:00,64.7,63.0,29.83,West,280,5.0,-999.0,94,-99.99,,,0.48,weatherlink.com 1.10,2013-06-11 09:56:00,
2013-06-11 06:11:00,64.7,63.0,29.83,West,279,7.0,-999.0,94,-99.99,,,0.00,weatherlink.com 1.10,2013-06-11 10:11:00,
2013-06-11 06:26:00,64.6,63.0,29.84,West,278,6.0,-999.0,94,-99.99,,,0.00,weatherlink.com 1.10,2013-06-11 10:26:00,
2013-06-11 06:41:00,64.3,63.0,29.84,West,278,7.0,-999.0,94,-99.99,,,0.00,weatherlink.com 1.10,2013-06-11 10:41:00,
2013-06-11 06:56:00,64.1,63.0,29.85,West,277,8.0,-999.0,95,-99.99,,,0.00,weatherlink.com 1.10,2013-06-11 10:56:00,
2013-06-11 07:12:00,64.4,63.0,29.85,West,276,8.0,-999.0,95,-99.99,,,0.00,weatherlink.com 1.10,2013-06-11 11:12:00,
2013-06-11 07:27:00,65.1,63.0,29.87,West,272,8.0,-999.0,94,-99.99,,,0.00,weatherlink.com 1.10,2013-06-11 11:27:00,
2013-06-11 07:42:00,65.8,64.0,29.87,West,279,5.0,-999.0,93,-99.99,,,0.00,weatherlink.com 1.10,2013-06-11 11:42:00,
2013-06-11 07:57:00,66.2,64.0,29.87,WNW,285,7.0,-999.0,91,-99.99,,,0.00,weatherlink.com 1.10,2013-06-11 11:57:00,
2013-06-11 08:12:00,66.2,64.0,29.87,West,265,8.0,-999.0,91,-99.99,,,0.00,weatherlink.com 1.10,2013-06-11 12:12:00,
2013-06-11 08:27:00,65.9,63.0,29.88,West,267,7.0,-999.0,90,-99.99,,,0.00,weatherlink.com 1.10,2013-06-11 12:27:00,
2013-06-11 08:42:00,66.2,63.0,29.88,West,269,8.0,-999.0,90,-99.99,,,0.00,weatherlink.com 1.10,2013-06-11 12:42:00,
2013-06-11 08:57:00,66.2,64.0,29.89,West,268,5.0,-999.0,91,-99.99,,,0.00,weatherlink.com 1.10,2013-06-11 12:57:00,
2013-06-11 09:12:00,66.4,63.0,29.89,West,277,5.0,-999.0,89,-99.99,,,0.00,weatherlink.com 1.10,2013-06-11 13:12:00,
2013-06-11 09:27:00,67.0,63.0,29.89,West,273,6.0,-999.0,88,-99.99,,,0.00,weatherlink.com 1.10,2013-06-11 13:27:00,
2013-06-11 09:43:00,67.1,63.0,29.89,West,264,6.0,-999.0,87,-99.99,,,0.00,weatherlink.com 1.10,2013-06-11 13:43:00,
2013-06-11 09:58:00,68.1,64.0,29.89,West,275,8.0,-999.0,87,-99.99,,,0.00,weatherlink.com 1.10,2013-06-11 13:58:00,
2013-06-11 10:13:00,68.7,64.0,29.89,WSW,257,4.0,-999.0,85,-99.99,,,0.00,weatherlink.com 1.10,2013-06-11 14:13:00,
2013-06-11 10:28:00,69.5,65.0,29.89,West,272,9.0,-999.0,85,-99.99,,,0.00,weatherlink.com 1.10,2013-06-11 14:28:00,
2013-06-11 10:43:00,69.8,64.0,29.89,West,271,9.0,-999.0,83,-99.99,,,0.00,weatherlink.com 1.10,2013-06-11 14:43:00,
2013-06-11 10:58:00,70.4,65.0,29.89,West,278,11.0,-999.0,83,-99.99,,,0.00,weatherlink.com 1.10,2013-06-11 14:58:00,
2013-06-11 11:13:00,71.6,66.0,29.89,West,263,2.0,-999.0,83,-99.99,,,0.00,weatherlink.com 1.10,2013-06-11 15:13:00,
2013-06-11 11:28:00,72.1,66.0,29.90,WNW,284,6.0,-999.0,80,-99.99,,,0.00,weatherlink.com 1.10,2013-06-11 15:28:00,
2013-06-11 11:43:00,72.7,65.0,29.90,WSW,256,8.0,-999.0,77,-99.99,,,0.00,weatherlink.com 1.10,2013-06-11 15:43:00,
2013-06-11 11:59:00,73.8,66.0,29.90,WSW,252,6.0,-999.0,76,-99.99,,,0.00,weatherlink.com 1.10,2013-06-11 15:59:00,
2013-06-11 12:14:00,74.8,66.0,29.90,West,275,9.0,-999.0,75,-99.99,,,0.00,weatherlink.com 1.10,2013-06-11 16:14:00,
2013-06-11 12:29:00,75.5,65.0,29.90,WNW,288,8.0,-999.0,71,-99.99,,,0.00,weatherlink.com 1.10,2013-06-11 16:29:00,
2013-06-11 12:44:00,76.1,64.0,29.89,WNW,292,12.0,-999.0,67,-99.99,,,0.00,weatherlink.com 1.10,2013-06-11 16:44:00,
2013-06-11 12:59:00,76.7,65.0,29.89,West,263,8.0,-999.0,68,-99.99,,,0.00,weatherlink.com 1.10,2013-06-11 16:59:00,
2013-06-11 13:14:00,77.8,66.0,29.88,WNW,286,7.0,-999.0,67,-99.99,,,0.00,weatherlink.com 1.10,2013-06-11 17:14:00,
2013-06-11 13:29:00,78.1,66.0,29.88,WNW,290,11.0,-999.0,66,-99.99,,,0.00,weatherlink.com 1.10,2013-06-11 17:29:00,
2013-06-11 13:44:00,78.5,65.0,29.87,WSW,258,10.0,-999.0,63,-99.99,,,0.00,weatherlink.com 1.10,2013-06-11 17:44:00,
2013-06-11 13:59:00,79.0,66.0,29.87,SW,235,11.0,-999.0,64,-99.99,,,0.00,weatherlink.com 1.10,2013-06-11 17:59:00,
2013-06-11 14:14:00,79.9,66.0,29.87,West,270,12.0,-999.0,62,-99.99,,,0.00,weatherlink.com 1.10,2013-06-11 18:14:00,
2013-06-11 14:30:00,79.7,65.0,29.86,WNW,293,14.0,-999.0,61,-99.99,,,0.00,weatherlink.com 1.10,2013-06-11 18:30:00,
2013-06-11 14:45:00,80.5,65.0,29.87,WNW,294,8.0,-999.0,60,-99.99,,,0.00,weatherlink.com 1.10,2013-06-11 18:45:00,
2013-06-11 15:00:00,81.0,66.0,29.86,WNW,284,11.0,-999.0,61,-99.99,,,0.00,weatherlink.com 1.10,2013-06-11 19:00:00,
2013-06-11 15:15:00,81.0,65.0,29.86,WNW,286,8.0,-999.0,58,-99.99,,,0.00,weatherlink.com 1.10,2013-06-11 19:15:00,
2013-06-11 15:30:00,82.0,65.0,29.85,WNW,288,7.0,-999.0,56,-99.99,,,0.00,weatherlink.com 1.10,2013-06-11 19:30:00,
2013-06-11 15:45:00,82.0,65.0,29.85,West,261,7.0,-999.0,57,-99.99,,,0.00,weatherlink.com 1.10,2013-06-11 19:45:00,
2013-06-11 16:00:00,82.4,65.0,29.85,WNW,290,8.0,-999.0,56,-99.99,,,0.00,weatherlink.com 1.10,2013-06-11 20:00:00,
2013-06-11 16:15:00,82.6,65.0,29.85,West,263,11.0,-999.0,56,-99.99,,,0.00,weatherlink.com 1.10,2013-06-11 20:15:00,
2013-06-11 16:30:00,83.3,65.0,29.84,West,277,15.0,-999.0,55,-99.99,,,0.00,weatherlink.com 1.10,2013-06-11 20:30:00,
2013-06-11 16:45:00,83.4,65.0,29.84,WSW,248,6.0,-999.0,54,-99.99,,,0.00,weatherlink.com 1.10,2013-06-11 20:45:00,
2013-06-11 17:00:00,83.5,65.0,29.83,WSW,240,11.0,-999.0,54,-99.99,,,0.00,weatherlink.com 1.10,2013-06-11 21:00:00,
2013-06-11 17:16:00,83.7,65.0,29.83,WSW,250,11.0,-999.0,54,-99.99,,,0.00,weatherlink.com 1.10,2013-06-11 21:16:00,
2013-06-11 17:31:00,83.5,65.0,29.82,WSW,254,10.0,-999.0,53,-99.99,,,0.00,weatherlink.com 1.10,2013-06-11 21:31:00,
2013-06-11 17:46:00,83.1,65.0,29.82,SW,219,9.0,-999.0,54,-99.99,,,0.00,weatherlink.com 1.10,2013-06-11 21:46:00,
2013-06-11 18:16:00,83.1,65.0,29.82,WSW,248,5.0,-999.0,54,-99.99,,,0.00,weatherlink.com 1.10,2013-06-11 22:16:00,
2013-06-11 18:31:00,83.2,65.0,29.82,WSW,242,4.0,-999.0,54,-99.99,,,0.00,weatherlink.com 1.10,2013-06-11 22:31:00,
2013-06-11 18:46:00,83.4,64.0,29.82,SW,236,6.0,-999.0,52,-99.99,,,0.00,weatherlink.com 1.10,2013-06-11 22:46:00,
2013-06-11 19:01:00,83.8,64.0,29.80,SW,229,8.0,-999.0,52,-99.99,,,0.00,weatherlink.com 1.10,2013-06-11 23:01:00,
2013-06-11 19:16:00,83.2,64.0,29.81,West,263,6.0,-999.0,53,-99.99,,,0.00,weatherlink.com 1.10,2013-06-11 23:16:00,
2013-06-11 19:31:00,82.3,64.0,29.82,WSW,246,8.0,-999.0,54,-99.99,,,0.00,weatherlink.com 1.10,2013-06-11 23:31:00,
2013-06-11 19:46:00,81.5,64.0,29.82,WSW,237,6.0,-999.0,56,-99.99,,,0.00,weatherlink.com 1.10,2013-06-11 23:46:00,
2013-06-11 20:01:00,80.7,64.0,29.82,West,262,10.0,-999.0,58,-99.99,,,0.00,weatherlink.com 1.10,2013-06-12 00:01:00,
2013-06-11 20:17:00,79.9,64.0,29.81,WSW,247,3.0,-999.0,59,-99.99,,,0.00,weatherlink.com 1.10,2013-06-12 00:17:00,
2013-06-11 20:32:00,79.4,65.0,29.80,WSW,256,3.0,-999.0,61,-99.99,,,0.00,weatherlink.com 1.10,2013-06-12 00:32:00,
2013-06-11 20:47:00,78.9,65.0,29.80,WSW,256,3.0,-999.0,62,-99.99,,,0.00,weatherlink.com 1.10,2013-06-12 00:47:00,
2013-06-11 21:02:00,78.3,65.0,29.79,WSW,256,2.0,-999.0,63,-99.99,,,0.00,weatherlink.com 1.10,2013-06-12 01:02:00,
2013-06-11 21:32:00,77.1,65.0,29.82,WSW,252,5.0,-999.0,67,-99.99,,,0.00,weatherlink.com 1.10,2013-06-12 01:32:00,
2013-06-11 21:47:00,76.7,65.0,29.82,West,262,11.0,-999.0,68,-99.99,,,0.00,weatherlink.com 1.10,2013-06-12 01:47:00,
2013-06-11 22:02:00,76.0,66.0,29.83,WSW,253,5.0,-999.0,70,-99.99,,,0.00,weatherlink.com 1.10,2013-06-12 02:02:00,
2013-06-11 22:17:00,75.6,66.0,29.83,WSW,246,5.0,-999.0,71,-99.99,,,0.00,weatherlink.com 1.10,2013-06-12 02:17:00,
2013-06-11 22:32:00,74.9,66.0,29.85,West,262,6.0,-999.0,73,-99.99,,,0.00,weatherlink.com 1.10,2013-06-12 02:32:00,
2013-06-11 22:47:00,74.3,66.0,29.84,WSW,244,4.0,-999.0,75,-99.99,,,0.00,weatherlink.com 1.10,2013-06-12 02:47:00,
2013-06-11 23:02:00,73.6,66.0,29.85,WSW,250,3.0,-999.0,77,-99.99,,,0.00,weatherlink.com 1.10,2013-06-12 03:02:00,
2013-06-11 23:17:00,73.1,66.0,29.85,WSW,250,3.0,-999.0,78,-99.99,,,0.00,weatherlink.com 1.10,2013-06-12 03:17:00,
2013-06-11 23:33:00,72.4,66.0,29.85,WSW,250,3.0,-999.0,79,-99.99,,,0.00,weatherlink.com 1.10,2013-06-12 03:33:00,
2013-06-11 23:48:00,71.8,66.0,29.84,WSW,250,1.0,-999.0,81,-99.99,,,0.00,weatherlink.com 1.10,2013-06-12 03:48:00,